📊 Raw Sensor Data
Showing records 50626 to 50650 of 85,136 total
| ID | Distance (ft) | Battery V | Battery A | Int Temp (°F) | Int Humid (%) | Ext Temp (°F) | Solar V | RSSI | SNR | Time Stamp |
|---|---|---|---|---|---|---|---|---|---|---|
| 34523 | -- | 4.05 | 8 | 64 | 43 | 60 | 4.50 | -74 | 8 | 03/09/2025 06:45 PM |
| 34522 | 15.4 | 4.05 | 27 | 68 | 41 | 62 | 4.50 | -73 | 8 | 03/09/2025 06:30 PM |
| 34521 | 15.5 | 4.01 | 5 | 70 | 40 | 63 | 5.10 | -73 | 8 | 03/09/2025 06:15 PM |
| 34520 | 15.5 | 4.00 | 0 | 71 | 41 | 65 | 5.10 | -75 | 7 | 03/09/2025 06:00 PM |
| 34519 | 15.5 | 4.00 | 0 | 71 | 41 | 64 | 5.10 | -75 | 8 | 03/09/2025 05:45 PM |
| 34518 | -- | 4.00 | 5 | 73 | 41 | 66 | 5.10 | -74 | 9 | 03/09/2025 05:30 PM |
| 34517 | -- | 4.00 | 5 | 74 | 42 | 65 | 5.10 | -75 | 8 | 03/09/2025 05:15 PM |
| 34516 | -- | 4.00 | 5 | 76 | 41 | 66 | 5.10 | -74 | 9 | 03/09/2025 05:00 PM |
| 34515 | -- | 4.00 | 5 | 79 | 41 | 68 | 5.10 | -74 | 8 | 03/09/2025 04:45 PM |
| 34514 | -- | 4.00 | 5 | 82 | 39 | 69 | 5.10 | -74 | 8 | 03/09/2025 04:30 PM |
| 34513 | 15.6 | 4.14 | 5 | 86 | 37 | 71 | 5.10 | -75 | 8 | 03/09/2025 04:15 PM |
| 34512 | 15.6 | 4.00 | 5 | 86 | 37 | 76 | 5.10 | -76 | 8 | 03/09/2025 04:00 PM |
| 34511 | 15.6 | 4.10 | 5 | 86 | 37 | 74 | 5.10 | -75 | 8 | 03/09/2025 03:45 PM |
| 34510 | -- | 4.00 | 0 | 86 | 36 | 74 | 5.10 | -75 | 9 | 03/09/2025 03:30 PM |
| 34509 | -- | 4.03 | 5 | 86 | 36 | 74 | 5.10 | -77 | 8 | 03/09/2025 03:15 PM |
| 34508 | 15.7 | 4.00 | 0 | 84 | 36 | 74 | 5.10 | -77 | 7 | 03/09/2025 03:00 PM |
| 34507 | -- | 4.00 | 0 | 84 | 35 | 73 | 5.10 | -76 | 8 | 03/09/2025 02:45 PM |
| 34506 | 15.6 | 4.00 | 0 | 82 | 36 | 73 | 5.10 | -75 | 8 | 03/09/2025 02:30 PM |
| 34505 | 15.6 | 4.00 | 0 | 82 | 35 | 73 | 5.10 | -76 | 8 | 03/09/2025 02:16 PM |
| 34504 | 15.6 | 4.00 | 5 | 81 | 35 | 72 | 5.10 | -73 | 8 | 03/09/2025 02:00 PM |
| 34503 | 15.6 | 4.00 | 0 | 79 | 35 | 71 | 5.10 | -76 | 8 | 03/09/2025 01:45 PM |
| 34502 | 15.6 | 4.00 | 5 | 78 | 35 | 66 | 5.10 | -76 | 8 | 03/09/2025 01:15 PM |
| 34501 | 15.6 | 4.13 | 5 | 76 | 35 | 68 | 5.10 | -76 | 7 | 03/09/2025 01:00 PM |
| 34500 | 15.7 | 4.00 | 5 | 75 | 35 | 69 | 5.10 | -76 | 8 | 03/09/2025 12:45 PM |
| 34499 | 15.7 | 4.01 | 5 | 74 | 34 | 67 | 5.10 | -77 | 7 | 03/09/2025 12:30 PM |